Résultats de la compétition "Régionale SOUSTONS" du 15-11-2008 organisée par le club 4012
     
  Télécharger le fichier CSV.  
     
     

 Circuit "C"

Licence Nom Prénom Temps CN
précédent
Score sur
la course
Différence
3254DARTHIAILJean-Paul0:58:0651484923-225
954PARZYCHMichel1:00:2951434729-414
1225PEREIRANadine1:05:1546774384-293
19467BOUCHERON-M-TAurélien1:07:3232284235+1007
3443BEZIRDJOGLOUPhilippe1:08:1444814192-289
6861DESQUEYROUXJean-Philippe1:11:28N/A4002N/A
633DUBROCAMonique1:14:3144583838-620
20347BISSIEREKevin1:20:55N/A3535N/A
7409LE ROUXAnne-Francoise1:29:5141073183-924
626COURNUTAlain1:34:3440373025-1012
638GAZAVEGuy1:40:2818262847+1021
7297AUBERTSylvie1:43:3623662761+395
14544DOGUETSylvie1:44:3327022736+34
16781LEBEAULTFrancois1:45:2225862715+129
8725GAILLARDAnnie1:46:3027812686-95
12687POUCHATValerie1:50:0928202597-223
20666BAYLETmarie-pierre1:52:04N/A2552N/A
16127LEMBEZATChristian1:54:2023772502+125
612BILHERANBrigitte1:58:5018922407+515
8386BOURLANDMartine2:00:2228482376-472
19471BOUCHERONKevin2:00:2820062374+368
16863BRESOLINCorinne2:04:0620932305+212
13298VAN DEWIELEAnne2:04:40N/A2294N/A
8047BONDIVENNEMarie2:07:4232732240-1033
16039LEMBEZATM-Christine2:22:1625242010-514
20367ZOHARFrédéric2:25:29N/A1966N/A
8981PERROCHONFrancoise2:28:1425601930-630
10101FREDERIQUEMaria2:28:1725091929-580
11705GIRARDLaurence2:34:52N/A1847N/A
20709GARDEBOISChristophe2:36:19N/A1830N/A
16915COURNILJ-Pierre3:15:06N/A1466N/A
17795SOPENAEricN/A23730-2373
406TREZEGUETCatherineN/A20610-2061
9649SIMONAlainN/A21570-2157
655QUEYROIHenriN/A44830-4483
12751FLEMINGThomasN/A11500-1150

  Indice de confiance du circuit (moyenne des différences entre CN et score sur la course des 3 à 10 premiers) : 335






 Retour